Weather History for Fairbanks Eiels, AK

Change the Weather History Date:

Thursday, May 2, 2013

  Actual Average Record
Temperature  
Mean Temperature 28 °F -  
Max Temperature 35 °F 52 °F 72 °F (2014)
Min Temperature 22 °F 31 °F 12 °F (1962)
Degree Days  
Heating Degree Days 36    
Moisture  
Dew Point 18 °F    
Average Humidity 69    
Maximum Humidity 80    
Minimum Humidity 54    
Precipitation  
Precipitation 0.00 in - - ()
Sea Level Pressure  
Sea Level Pressure 29.84 in    
Wind  
Wind Speed 6 mph (NNW)    
Max Wind Speed 9 mph    
Max Gust Speed -    
Visibility 10 miles    
Events Snow    
Averages and records for this station are not official NWS values.
T = Trace of Precipitation, MM = Missing Value Source: NWS Daily Summary

Daily Weather History Graph

Daily Weather History Graph

Search for Another Location

Airport:

Trip Planner

Search our weather history database for the weather conditions in past years. The results will help you decide how hot, cold, wet, or windy it might be!

Date:

Astronomy

May. 02, 2013 Rise Set
Actual Time 5:11 AM AKDT 10:21 PM AKDT
Civil Twilight 3:56 AM AKDT 11:37 PM AKDT
Nautical Twilight 2:17 AM AKDT Sun does not rise
Astronomical Twilight Sun does not rise Sun does not rise
Moon 3:47 AM AKDT (5/2) 12:45 PM AKDT (5/2)
Length of Visible Light 19h 41m
Length of Day
17h 10m
Last Quarter, 46% of the Moon is Illuminated
May 2
Last Quarter
May 9
New
May 17
First Quarter
May 24
Full
May 31
Last Quarter

Hourly Weather History & Observations

Time (AKDT) Temp. Windchill Dew Point Humidity Pressure Visibility Wind Dir Wind Speed Gust Speed Precip Events Conditions
12:55 AM 25.3 °F 16.0 °F 15.8 °F 67% 29.72 in 10.0 mi North 9.2 mph - N/A   Mostly Cloudy
1:55 AM 25.2 °F 16.5 °F 15.8 °F 68% 29.74 in 10.0 mi North 8.1 mph - N/A   Overcast
2:55 AM 22.8 °F 13.6 °F 16.9 °F 78% 29.75 in 10.0 mi NNW 8.1 mph - N/A   Overcast
3:13 AM 23.0 °F 13.9 °F 17.6 °F 80% 29.76 in 10.0 mi NNW 8.1 mph - N/A   Overcast
3:55 AM 23.5 °F 14.5 °F 16.2 °F 73% 29.77 in 10.0 mi NNW 8.1 mph - N/A   Overcast
4:06 AM 23.0 °F 14.7 °F 15.8 °F 74% 29.78 in 10.0 mi Variable 6.9 mph - N/A   Overcast
4:17 AM 23.0 °F 14.7 °F 15.8 °F 74% 29.78 in 10.0 mi Variable 6.9 mph - N/A   Overcast
4:41 AM 23.0 °F 13.9 °F 15.8 °F 74% 29.78 in 10.0 mi NNW 8.1 mph - N/A   Overcast
4:55 AM 23.2 °F 15.0 °F 16.0 °F 74% 29.79 in 10.0 mi Variable 6.9 mph - 0.00 in   Overcast
5:05 AM 23.0 °F 15.8 °F 15.8 °F 74% 29.79 in 10.0 mi Variable 5.8 mph - N/A   Overcast
5:18 AM 23.0 °F 14.7 °F 15.8 °F 74% 29.79 in 10.0 mi Variable 6.9 mph - N/A   Overcast
5:39 AM 23.0 °F 13.9 °F 15.8 °F 74% 29.80 in 10.0 mi NW 8.1 mph - N/A   Overcast
5:45 AM 23.0 °F 13.1 °F 15.8 °F 74% 29.80 in 10.0 mi NW 9.2 mph - N/A   Overcast
5:55 AM 22.6 °F 13.4 °F 16.5 °F 77% 29.80 in 10.0 mi NNW 8.1 mph - 0.00 in Snow Light Snow
6:09 AM 23.0 °F 14.7 °F 17.6 °F 80% 29.80 in 10.0 mi North 6.9 mph - N/A Snow Light Snow
6:32 AM 23.0 °F 14.7 °F 17.6 °F 80% 29.81 in 10.0 mi NNW 6.9 mph - N/A Snow Light Snow
6:55 AM 22.5 °F 15.1 °F 16.7 °F 79% 29.82 in 8.0 mi Variable 5.8 mph - 0.00 in Snow Light Snow
7:35 AM 23.0 °F 17.0 °F 17.6 °F 80% 29.83 in 5.0 mi Variable 4.6 mph - N/A Snow Light Snow
7:53 AM 23.0 °F 18.4 °F 17.6 °F 80% 29.80 in 8.0 mi North 3.5 mph - N/A Snow Light Snow
7:55 AM 23.2 °F 18.7 °F 16.9 °F 77% 29.83 in 10.0 mi North 3.5 mph - 0.00 in Snow Light Snow
8:55 AM 24.1 °F - 16.5 °F 73% 29.85 in 10.0 mi Calm Calm - 0.00 in   Mostly Cloudy
9:39 AM 24.8 °F 20.5 °F 17.6 °F 74% 29.86 in 10.0 mi Variable 3.5 mph - N/A   Overcast
9:55 AM 26.1 °F - 17.2 °F 69% 29.86 in 10.0 mi Calm Calm - 0.00 in Snow Light Snow
10:29 AM 26.6 °F - 17.6 °F 69% 29.87 in 10.0 mi Calm Calm - N/A   Mostly Cloudy
10:55 AM 27.1 °F - 19.0 °F 72% 29.87 in 10.0 mi Calm Calm - 0.00 in Snow Light Snow
11:55 AM 28.8 °F - 19.2 °F 68% 29.88 in 10.0 mi Calm Calm - 0.00 in   Mostly Cloudy
12:55 PM 30.2 °F 26.7 °F 19.8 °F 65% 29.88 in 10.0 mi North 3.5 mph - N/A   Mostly Cloudy
1:55 PM 31.5 °F 28.1 °F 18.7 °F 59% 29.89 in 10.0 mi NNW 3.5 mph - N/A   Mostly Cloudy
2:55 PM 32.0 °F 25.6 °F 19.4 °F 60% 29.90 in 10.0 mi WSW 6.9 mph - N/A   Scattered Clouds
3:55 PM 33.1 °F 26.9 °F 19.6 °F 58% 29.91 in 10.0 mi Variable 6.9 mph - N/A   Overcast
4:55 PM 33.8 °F - 19.0 °F 55% 29.91 in 10.0 mi Calm Calm - N/A   Scattered Clouds
5:55 PM 34.7 °F - 19.9 °F 55% 29.91 in 10.0 mi Calm Calm - N/A   Scattered Clouds
6:55 PM 35.6 °F - 20.7 °F 55% 29.90 in 10.0 mi Calm Calm - N/A   Overcast
7:55 PM 35.1 °F - 19.9 °F 54% 29.90 in 10.0 mi Calm Calm - N/A   Mostly Cloudy
8:55 PM 34.7 °F - 20.3 °F 56% 29.90 in 10.0 mi Calm Calm - N/A   Partly Cloudy
9:55 PM 33.4 °F - 20.7 °F 59% 29.91 in 10.0 mi Calm Calm - N/A   Mostly Cloudy
10:55 PM 32.5 °F - 21.7 °F 64% 29.91 in 10.0 mi Calm Calm - N/A   Clear
11:55 PM 32.5 °F - 21.6 °F 64% 29.92 in 10.0 mi Calm Calm - N/A   Scattered Clouds